SPACEBEE-11 (46307 NORAD) Tracking and Keplerian Element Data

This shows tracking and keplerian element data for the satellite.

Feedback or suggestion? Click here.




ElementValue
Catalog46307
NameSPACEBEE-11
Epoch Orbit293
Epoch Day267.21487033
Epoch Year2020
RAAN339.9945
Inclination97.5182
Eccentricity0.0001555
Argument of Perigee127.4101
Mean Anonmoly232.7271
Mean Motion15.10661681
Decay Rate1.761E-05
L11 46307U 20061AM 20267.21487033 .00001761 00000-0 11028-3 0 9994
L22 46307 97.5182 339.9945 0001555 127.4101 232.7271 15.10661681 2931

Live tracking and technical data element details for SPACEBEE-11 (NORAD 46307). SPACEBEE-11 can be tracked NOW for your location showing map with azimuth and elevation plus other details from your city location.

Track the satellite on the map from your city or location and see movement details for azimuth, elevation, latitude, longitude, range, height, and movement on the map or in text.







IsCatalogInMostPopularTable: catalog: 46307, numindb: 2
Update: records affected: 1



GetName: 46307 SPACEBEE-11

Hit Count: updated at: Thu, 24 Sep 2020 18:56:41 GMT